Regional Weather Roundup
Issued by NWS

Home | Current Version | Previous Version | Text Only | Print | Product List | Glossary On
Versions: 1 2 3 4 5 6 7 8 9 10 11 12 13 14 15 16 17 18 19 20 21 22 23 24 25 26 27 28 29 30 31 32 33 34 35 36 37 38 39 40 41 42 43 44 45 46 47 48 49 50
000
ASUS44 KLIX 281212
RWRLA
LOUISIANA WEATHER ROUNDUP
NATIONAL WEATHER SERVICE NEW ORLEANS LA
700 AM CDT THU MAY 28 2015

NOTE: "FAIR" INDICATES FEW OR NO CLOUDS BELOW 12,000 FEET WITH NO
      SIGNIFICANT WEATHER AND/OR OBSTRUCTIONS TO VISIBILITY.
      SKY/WX - SKY CONDITION AND SIGNIFICANT WEATHER.
      TMP - AIR TEMPERATURE.    DP   - DEWPOINT TEMPERATURE.
      RH  - RELATIVE HUMIDITY.  PRES - PRESSURE.
      HX  - HEAT INDEX.         WCI  - WIND CHILL INDEX.

*  THESE STATIONS ARE NOT NWS OR FAA STATIONS AND ARE NOT UNDER
   NWS QUALITY CONTROL.

LAZ040-048-061>063-065-066-069-281300-
SOUTHEAST LOUISIANA

CITY           SKY/WX    TMP DP  RH WIND       PRES   REMARKS
N.O. AUDUBON     N/A     73  73 100 MISG        N/A
6HR MIN TEMP:  69; 6HR MAX TEMP:  73;

N.O. INTL ARPT MOSUNNY   72  69  90 CALM      30.10R
6HR MIN TEMP:  69; 6HR MAX TEMP:  73;

N.O. LAKEFRONT SUNNY     77  72  84 E5        30.11R
6HR MIN TEMP:  75; 6HR MAX TEMP:  78;

SLIDELL        CLOUDY    68  68 100 CALM      30.11R
6HR MIN TEMP:  66; 6HR MAX TEMP:  70;

BATON ROUGE    SUNNY     66  65  96 NE5       30.11R
6HR MIN TEMP:  64; 6HR MAX TEMP:  67;

BOOTHVILLE     SUNNY     75  74  96 CALM      30.11R
6HR MIN TEMP:  75; 6HR MAX TEMP:  77;

BELLE CHASSE   PTSUNNY   69  67  93 NE5       30.10R FOG
6HR MIN TEMP:  66; 6HR MAX TEMP:  70; 6HR PCP: TRACE;

BOGALUSA*        N/A     67  64  90 CALM      30.14R
6HR MIN TEMP:  66; 6HR MAX TEMP:  68;

GALLIANO*      MOSUNNY   66  65  97 CALM      30.10S
6HR MIN TEMP:  65; 6HR MAX TEMP:  71;

NEW ROADS*     FAIR      66  65  97 CALM      30.11F FOG
6HR MIN TEMP:  65; 6HR MAX TEMP:  68;

GONZALES*      FAIR      67  67 100 CALM      30.10R
6HR MIN TEMP:  65; 6HR MAX TEMP:  67;

HAMMOND*       SUNNY     66  64  94 CALM      30.13R
HOUMA*         SUNNY     66  66 100 CALM      30.10R
PORT FOURCHON* PTSUNNY   79  73  83 CALM      30.10S

$$

LAZ041-044-053-054-281300-
SOUTHWEST LOUISIANA

CITY           SKY/WX    TMP DP  RH WIND       PRES   REMARKS
LAKE CHARLES   CLEAR     72  70  93 E3        30.10R
6HR MIN TEMP:  71; 6HR MAX TEMP:  73;

LAFAYETTE      CLEAR     70  68  93 CALM      30.10R FOG
6HR MIN TEMP:  69; 6HR MAX TEMP:  71;

PATTERSON      CLEAR     70  66  88 SE6       30.11R
6HR MIN TEMP:  66; 6HR MAX TEMP:  70;

SALT POINT       N/A     71  70  96 NE3       30.09R
6HR MIN TEMP:  70; 6HR MAX TEMP:  71; 6HR PCP:  0.01;

NEW IBERIA     CLEAR     72  69  90 NE3       30.11R
6HR MIN TEMP:  69; 6HR MAX TEMP:  72;

CHENAULT AIRPK NOT AVBL

$$

LAZ027-028-281300-
CENTRAL LOUISIANA

CITY           SKY/WX    TMP DP  RH WIND       PRES   REMARKS
FORT POLK      CLEAR     70  68  94 S2        30.10R
6HR MIN TEMP:  69; 6HR MAX TEMP:  73;

ALEXANDRIA INT PTCLDY    70  70 100 CALM      30.09R
6HR MIN TEMP:  68; 6HR MAX TEMP:  72;

ALEXANDRIA     CLEAR     66  65  96 CALM      30.11R
6HR MIN TEMP:  64; 6HR MAX TEMP:  68;


$$

LAZ001-002-281300-
NORTHWEST LOUISIANA

CITY           SKY/WX    TMP DP  RH WIND       PRES   REMARKS
SHREVEPORT     MOCLDY    73  70  90 CALM      30.09R
6HR MIN TEMP:  71; 6HR MAX TEMP:  74;

BARKSDALE AFB  NOT AVBL
DTN SHREVEPORT CLOUDY    72  68  87 CALM      30.10R
6HR MIN TEMP:  70; 6HR MAX TEMP:  74;


$$

LAZ014-016-281300-
NORTHEAST LOUISIANA

CITY           SKY/WX    TMP DP  RH WIND       PRES   REMARKS
MONROE         SUNNY     66  66 100 CALM      30.12R
TALLULAH       SUNNY     69  67  93 E5        30.13R
6HR MIN TEMP:  66; 6HR MAX TEMP:  69;


$$



USA.gov is the U.S. government's official web portal to all federal, state and local government web resources and services.